Waarnemingen

Advertentie
Mijn weer
Grenoble/St.Geoirs, Frankrijk (7486): temperatuur & dauwpunt: 12.01.2020 11:00:00 - 18.01.2020 11:00:00 (CET)Grenoble/St.Geoirs, Frankrijk (7486): temperatuur 5cm: 12.01.2020 11:00:00 - 18.01.2020 11:00:00 (CET)Grenoble/St.Geoirs, Frankrijk (7486): temperatuur -20cm & temperatuur -100cm: 12.01.2020 11:00:00 - 18.01.2020 11:00:00 (CET)Grenoble/St.Geoirs, Frankrijk (7486): windsnelheid & windstoten: 12.01.2020 11:00:00 - 18.01.2020 11:00:00 (CET)Grenoble/St.Geoirs, Frankrijk (7486): windrichting: 12.01.2020 11:00:00 - 18.01.2020 11:00:00 (CET)Grenoble/St.Geoirs, Frankrijk (7486): luchtdruk: 12.01.2020 11:00:00 - 18.01.2020 11:00:00 (CET)Grenoble/St.Geoirs, Frankrijk (7486): zicht: 12.01.2020 11:00:00 - 18.01.2020 11:00:00 (CET)Grenoble/St.Geoirs, Frankrijk (7486): Zonneschijnduur: 12.01.2020 11:00:00 - 18.01.2020 11:00:00 (CET)Grenoble/St.Geoirs, Frankrijk (7486): neerslag: 12.01.2020 11:00:00 - 18.01.2020 11:00:00 (CET)
Datum & Tijd tt [°C] td [°C] tt 5cm [°C] tt -20cm [°C] tt -100cm [°C] ff [km/u] ff [kn] fx [km/u] fx [kn] dd ppp [hPa] vv [km] sd [min] rr [mm]
18.01.2020 11:00:00 - - - - - - - - - - - - - -
18.01.2020 10:00:00 2,1 1,2 -0,7 5,6 7,7 5 3 13 7 W 1031,3 17 60 0,0
18.01.2020 09:00:00 0,3 -0,3 -3,8 5,7 7,7 8 4 13 7 NNW 1031,4 10 11 0,0
18.01.2020 08:00:00 1,1 0,7 -2,7 5,7 7,7 6 4 18 10 NNO 1030,8 18 0 0,0
18.01.2020 07:00:00 0,1 -0,2 -3,2 5,8 7,7 5 3 10 5 O 1031,1 20 0 0,0
18.01.2020 06:00:00 -0,4 -1,1 -2,3 5,8 7,8 8 4 12 7 ONO 1031,2 27 0 0,0
18.01.2020 05:00:00 0,4 -0,9 -2,5 5,8 7,7 6 4 11 6 NO 1031,5 35 0 0,0
18.01.2020 04:00:00 3,3 1,0 0,0 5,8 7,8 8 5 24 13 O 1031,0 47 0 0,0
18.01.2020 03:00:00 4,3 1,7 2,9 5,8 7,7 13 7 31 17 N 1030,8 55 0 0,0
18.01.2020 02:00:00 4,8 2,3 1,9 5,9 7,8 23 12 32 17 NW 1030,4 50 0 0,0
18.01.2020 01:00:00 3,1 2,8 -0,1 5,8 7,7 8 5 16 9 ZZW 1030,4 0,5 0 0,0
18.01.2020 00:00:00 4,2 3,5 3,2 5,8 7,8 5 3 9 5 ZZO 1029,8 14 0 0,0
17.01.2020 23:00:00 4,3 3,7 3,0 5,8 7,7 7 4 18 10 NO 1029,3 45 0 0,0
17.01.2020 22:00:00 5,0 4,6 4,4 5,8 7,8 13 7 17 9 ONO 1028,7 18 0 0,0
17.01.2020 21:00:00 5,0 4,6 4,4 5,7 7,7 6 4 9 5 ONO 1028,1 5 0 0,8
17.01.2020 20:00:00 5,4 4,5 4,7 5,7 7,7 4 2 9 5 Z 1027,4 6 0 0,6
17.01.2020 19:00:00 5,6 4,6 4,8 5,7 7,7 6 3 27 14 Z 1026,2 15 0 1,4
17.01.2020 18:00:00 6,0 4,6 5,3 5,7 7,7 23 12 40 21 NW 1025,1 5 0 0,8
17.01.2020 17:00:00 6,1 5,2 5,8 5,6 7,7 17 9 25 14 ONO 1023,7 10 0 0,0
17.01.2020 16:00:00 7,1 6,5 6,9 5,6 7,8 15 8 20 11 O 1023,2 6 0 0,2
17.01.2020 15:00:00 7,1 6,5 6,1 5,5 7,7 10 5 28 15 ONO 1023,1 6 0 1,2
17.01.2020 14:00:00 6,5 5,8 6,1 5,5 7,7 16 9 21 12 ONO 1023,0 3,9 0 1,2
17.01.2020 13:00:00 7,2 6,3 7,2 5,5 7,8 13 7 19 11 O 1023,4 5 0 2,2
17.01.2020 12:00:00 7,6 6,2 7,2 5,4 7,7 0 0 10 6 N 1024,5 8 0 0,8
17.01.2020 11:00:00 8,0 5,5 8,0 5,5 7,7 3 2 10 5 O 1024,6 22 0 0,0
17.01.2020 10:00:00 7,3 5,1 5,4 5,5 7,7 9 5 16 9 ONO 1024,4 22 9 0,0
17.01.2020 09:00:00 5,4 4,2 1,7 5,5 7,7 8 4 12 7 O 1025,4 19 11 0,0
17.01.2020 08:00:00 3,8 2,9 1,5 5,6 7,8 10 6 15 8 O 1025,6 23 0 0,0
17.01.2020 07:00:00 2,6 1,6 0,9 5,6 7,8 6 3 17 9 O 1025,7 20 0 0,0
17.01.2020 06:00:00 1,8 0,9 -0,4 5,7 7,8 10 5 15 8 O 1026,0 20 0 0,0
17.01.2020 05:00:00 2,1 0,8 -0,6 5,7 7,8 8 4 10 5 O 1025,8 22 0 0,0
17.01.2020 04:00:00 1,8 0,8 -2,3 5,8 7,7 5 3 9 5 O 1026,1 39 0 0,0
17.01.2020 03:00:00 2,2 0,6 -2,1 5,8 7,8 2 1 14 8 ZO 1026,2 28 0 0,0
17.01.2020 02:00:00 0,7 -0,6 - - - 8 4 11 6 ONO 1026,5 20 - 0,0
17.01.2020 01:00:00 2,4 1,2 -1,3 5,9 7,8 4 2 24 13 N 1026,5 22 0 0,0
17.01.2020 00:00:00 0,7 -0,3 -1,8 5,9 7,7 6 3 15 8 ONO 1027,4 12 0 0,0
16.01.2020 23:00:00 0,8 -0,2 -1,6 5,9 7,8 7 4 17 9 NO 1027,7 12 0 0,0
16.01.2020 22:00:00 1,9 1,2 -0,4 5,9 7,7 13 7 17 9 O 1027,9 8 0 0,0
16.01.2020 21:00:00 1,9 0,7 -0,8 5,9 7,8 11 6 14 8 O 1028,5 11 0 0,0
16.01.2020 20:00:00 5,9 3,4 -0,6 5,9 7,8 6 3 9 5 ZO 1028,1 28 0 0,0
16.01.2020 19:00:00 5,1 2,1 -0,2 5,8 7,7 5 3 14 7 ONO 1028,1 42 0 0,0
16.01.2020 18:00:00 8,6 3,8 4,1 5,8 7,7 14 8 20 11 ZW 1027,5 43 0 0,0
16.01.2020 17:00:00 10,4 3,9 8,8 5,7 7,7 11 6 37 20 Z 1027,0 49 56 0,0
16.01.2020 16:00:00 11,9 5,1 13,5 5,6 7,8 15 8 26 14 ZZW 1026,7 37 58 0,0
16.01.2020 15:00:00 12,4 5,3 15,1 5,6 7,7 18 10 29 16 Z 1026,5 27 60 0,0
16.01.2020 14:00:00 12,3 5,0 15,4 5,5 7,7 19 10 28 15 ZZW 1027,0 24 60 0,0
16.01.2020 13:00:00 11,7 4,7 13,4 5,5 7,7 9 5 22 12 ONO 1027,7 38 60 0,0
16.01.2020 12:00:00 9,9 3,8 10,5 5,6 7,7 10 5 18 10 O 1028,9 26 60 0,0
16.01.2020 11:00:00 8,0 3,1 7,3 5,6 7,7 15 8 23 12 O 1029,6 24 60 0,0
16.01.2020 10:00:00 5,7 1,8 1,9 5,6 7,7 14 8 21 11 O 1030,0 23 60 0,0
16.01.2020 09:00:00 2,4 0,3 0,0 5,6 7,7 13 7 21 12 O 1030,4 34 18 0,0
16.01.2020 08:00:00 1,4 -0,4 -0,3 5,7 7,8 16 8 22 12 O 1030,3 30 0 0,0
16.01.2020 07:00:00 3,6 0,8 0,9 5,7 7,7 19 10 28 15 ONO 1029,3 33 0 0,0
16.01.2020 06:00:00 2,1 0,2 0,8 5,7 7,7 18 10 24 13 O 1029,6 30 0 0,0
16.01.2020 05:00:00 4,4 1,6 2,1 5,7 7,7 17 9 23 12 ONO 1029,2 28 0 0,0
16.01.2020 04:00:00 5,3 2,3 4,7 5,7 7,8 16 9 22 12 ONO 1029,3 24 0 0,0
16.01.2020 03:00:00 5,6 3,6 5,1 5,7 7,7 12 7 21 11 O 1029,7 24 0 0,0
16.01.2020 02:00:00 5,7 4,3 5,1 5,7 7,8 15 8 22 12 O 1029,4 15 0 0,0
16.01.2020 01:00:00 5,6 4,6 3,0 5,8 7,8 16 9 22 12 O 1029,6 12 0 0,0
16.01.2020 00:00:00 3,8 2,9 0,0 5,8 7,8 11 6 18 10 O 1029,9 9 0 0,0
15.01.2020 23:00:00 2,6 1,0 0,5 5,8 7,8 8 5 14 8 O 1029,9 17 0 0,0
15.01.2020 22:00:00 3,8 2,3 0,2 5,8 7,8 6 3 16 9 O 1029,3 22 0 0,0
15.01.2020 21:00:00 4,9 2,3 1,3 5,8 7,8 4 2 15 8 OZO 1028,7 44 0 0,0
15.01.2020 20:00:00 8,5 3,7 3,5 5,7 7,8 7 4 21 11 W 1027,8 59 0 0,0
15.01.2020 19:00:00 7,5 4,8 4,6 5,7 7,8 11 6 28 15 W 1027,7 49 0 0,0
15.01.2020 18:00:00 8,4 5,0 7,1 5,6 7,8 18 10 37 20 ZW 1026,5 55 0 0,0
15.01.2020 17:00:00 9,9 4,7 8,8 5,5 7,8 15 8 38 21 ZW 1025,6 50 35 0,0
15.01.2020 16:00:00 11,5 5,4 11,1 5,5 7,8 20 11 43 23 ZZW 1024,5 28 23 0,0
15.01.2020 15:00:00 10,9 5,8 11,1 5,4 7,8 27 15 40 22 ZW 1024,6 31 0 0,0
15.01.2020 14:00:00 10,8 5,3 10,8 5,4 7,8 17 9 42 23 ZW 1023,9 55 0 0,0
15.01.2020 13:00:00 10,3 5,5 10,3 5,3 7,8 20 11 38 21 ZZW 1023,9 42 0 0,0
15.01.2020 12:00:00 10,5 4,6 10,1 5,3 7,8 26 14 42 23 ZW 1023,6 43 0 0,0
15.01.2020 11:00:00 12,0 2,7 12,3 5,3 7,8 13 7 39 21 ZZW 1022,8 41 27 0,0
15.01.2020 10:00:00 12,2 1,8 10,9 5,3 7,8 26 14 49 26 Z 1021,7 26 55 0,0
15.01.2020 09:00:00 10,7 1,2 7,6 5,3 7,8 11 6 50 27 ZZO 1021,8 35 20 0,0
15.01.2020 08:00:00 8,5 1,2 1,4 5,3 7,8 14 8 37 20 ZZO 1022,0 60 0 0,0
15.01.2020 07:00:00 6,4 1,5 1,5 5,4 7,8 7 4 21 11 W 1022,2 60 0 0,0
15.01.2020 06:00:00 6,1 1,8 0,5 5,4 7,8 6 4 21 11 W 1021,9 60 0 0,0
15.01.2020 05:00:00 5,9 2,5 1,9 5,4 7,8 15 8 26 14 W 1021,7 56 0 0,0
15.01.2020 04:00:00 5,9 2,0 2,6 5,4 7,8 12 6 35 19 WZW 1022,0 57 0 0,0
15.01.2020 03:00:00 9,8 0,9 5,3 5,4 7,8 21 12 43 23 Z 1021,5 60 0 0,0
15.01.2020 02:00:00 9,0 0,4 6,5 5,4 7,8 13 7 49 27 Z 1022,0 60 0 0,0
15.01.2020 01:00:00 9,2 1,1 7,6 5,4 7,8 27 15 51 28 ZW 1022,0 60 0 0,0
15.01.2020 00:00:00 9,2 1,1 2,6 5,4 7,8 23 12 40 21 Z 1021,9 59 0 0,0
14.01.2020 23:00:00 6,8 1,1 3,6 5,5 7,8 9 5 33 18 ZW 1022,1 60 0 0,0
14.01.2020 22:00:00 7,4 2,1 0,8 5,4 7,8 21 11 29 16 ZW 1022,1 44 0 0,0
14.01.2020 21:00:00 5,1 2,1 -1,0 5,4 7,8 6 3 9 5 NW 1022,6 37 0 0,0
14.01.2020 20:00:00 5,6 2,4 -0,2 5,4 7,8 3 2 13 7 ONO 1022,5 28 0 0,0
14.01.2020 19:00:00 6,0 2,5 2,6 5,3 7,9 8 4 19 11 W 1022,3 34 0 0,0
14.01.2020 18:00:00 8,2 1,8 5,1 5,2 7,9 11 6 33 18 ZW 1021,7 55 0 0,0
14.01.2020 17:00:00 10,0 2,3 9,4 5,1 7,9 22 12 35 19 ZW 1020,9 43 34 0,0
14.01.2020 16:00:00 11,0 2,8 11,4 5,1 7,9 23 12 43 23 ZZW 1020,7 27 45 0,0
14.01.2020 15:00:00 11,5 2,2 11,5 5,0 7,9 17 9 46 25 ZZW 1020,9 26 21 0,0
14.01.2020 14:00:00 12,5 2,6 14,4 5,0 7,9 23 12 46 25 ZZW 1020,7 27 60 0,0
14.01.2020 13:00:00 12,2 2,3 13,6 5,0 7,9 24 13 55 30 ZZW 1021,3 31 60 0,0
14.01.2020 12:00:00 11,6 2,3 12,6 5,0 7,9 21 12 48 26 ZZW 1021,5 45 60 0,0
14.01.2020 11:00:00 9,7 2,1 6,1 5,0 7,9 7 4 17 9 Z 1021,8 34 48 0,0
14.01.2020 10:00:00 5,2 1,3 1,3 5,0 7,9 11 6 16 9 NO 1022,2 28 60 0,0
14.01.2020 09:00:00 2,0 -0,8 -0,5 5,0 7,9 3 2 21 12 NNO 1022,5 28 19 0,0
14.01.2020 08:00:00 1,9 -0,5 -0,4 5,1 7,9 15 8 27 15 ONO 1021,9 25 0 0,0
14.01.2020 07:00:00 2,5 -0,6 0,1 5,0 7,9 7 4 24 13 O 1021,8 24 0 0,0
14.01.2020 06:00:00 2,7 -0,6 0,5 5,1 7,9 10 5 31 17 O 1021,7 24 0 0,0
14.01.2020 05:00:00 6,4 -0,1 3,9 5,0 7,9 14 8 35 19 ZZW 1020,1 27 0 0,0
14.01.2020 04:00:00 6,6 1,3 5,0 5,1 7,9 23 12 51 27 ZZW 1020,5 58 0 0,0
14.01.2020 03:00:00 6,2 1,9 4,1 5,1 7,9 20 11 61 33 WZW 1021,2 46 0 0,0
14.01.2020 02:00:00 5,6 2,4 4,7 5,2 8,0 31 17 53 29 WZW 1021,5 39 0 0,0
14.01.2020 01:00:00 5,9 2,5 2,0 5,2 7,9 18 10 49 26 ZW 1021,8 29 0 0,0
14.01.2020 00:00:00 4,7 2,2 0,6 5,2 7,9 9 5 25 14 WNW 1022,0 25 0 0,0
13.01.2020 23:00:00 4,5 2,5 -0,3 5,2 7,9 7 4 19 10 WZW 1021,6 17 0 0,0
13.01.2020 22:00:00 4,3 2,6 -0,7 5,2 8,0 3 1 10 5 W 1021,4 13 0 0,0
13.01.2020 21:00:00 4,8 2,5 -0,4 5,2 8,0 3 1 18 10 W 1021,7 23 0 0,0
13.01.2020 20:00:00 3,8 0,7 -0,7 5,2 8,0 9 5 24 13 ZO 1022,5 20 0 0,0
13.01.2020 19:00:00 5,0 1,7 1,8 5,1 7,9 10 5 21 12 W 1022,3 34 0 0,0
13.01.2020 18:00:00 6,5 1,8 1,7 5,1 8,0 6 3 20 11 ZO 1022,0 35 0 0,0
13.01.2020 17:00:00 7,4 1,2 2,9 5,0 8,0 3 2 12 6 NW 1021,7 33 46 0,0
13.01.2020 16:00:00 7,5 1,8 6,8 5,0 8,0 7 4 18 10 ONO 1021,5 22 32 0,0
13.01.2020 15:00:00 7,6 1,0 8,9 4,9 8,0 11 6 21 11 O 1022,6 15 36 0,0
13.01.2020 14:00:00 6,7 0,6 8,9 4,9 8,0 3 2 10 6 O 1023,3 18 9 0,0
13.01.2020 13:00:00 6,2 1,1 8,4 5,0 8,0 5 3 13 7 ONO 1024,1 17 41 0,0
13.01.2020 12:00:00 5,1 0,3 5,7 5,0 8,0 10 5 16 9 O 1025,1 20 60 0,0
13.01.2020 11:00:00 2,8 -0,3 2,0 5,1 8,0 7 4 12 6 O 1026,2 15 58 0,0
13.01.2020 10:00:00 0,6 -0,7 -3,0 5,2 8,0 5 3 10 5 ZO 1026,8 15 40 0,0
13.01.2020 09:00:00 -1,4 -2,0 -5,0 5,2 8,0 2 1 16 9 O 1027,2 17 12 0,0
13.01.2020 08:00:00 -2,4 -3,1 -5,4 5,3 8,0 10 5 13 7 O 1027,2 11 0 0,0
13.01.2020 07:00:00 -2,9 -3,4 -6,2 5,4 8,0 12 7 14 8 O 1027,8 8 0 0,0
13.01.2020 06:00:00 -3,9 -4,9 -5,6 5,5 8,0 10 6 13 7 O 1028,2 8 0 0,0
13.01.2020 05:00:00 -3,2 -3,9 -6,7 5,5 8,0 10 6 14 8 O 1028,5 7 0 0,0
13.01.2020 04:00:00 -4,6 -5,4 -8,6 5,6 8,0 12 6 14 7 O 1028,9 6 0 0,0
13.01.2020 03:00:00 -3,4 -3,8 -6,6 5,6 8,0 9 5 12 6 O 1029,2 4,1 0 0,0
13.01.2020 02:00:00 -3,4 -4,1 -6,2 5,7 8,0 9 5 13 7 O 1029,5 3,6 0 0,0
13.01.2020 01:00:00 -1,5 -1,9 -4,7 5,8 8,0 7 4 11 6 O 1029,5 2,8 0 0,0
13.01.2020 00:00:00 -2,1 -2,5 -6,6 5,8 8,0 8 4 11 6 O 1030,3 2,4 0 0,0
12.01.2020 23:00:00 -0,8 -0,9 -6,0 5,9 8,0 6 3 10 6 O 1030,3 2,9 0 0,0
12.01.2020 22:00:00 -1,5 -1,8 -6,0 5,9 8,0 5 3 10 5 O 1030,7 4,5 0 0,0
12.01.2020 21:00:00 0,0 -0,7 -4,1 5,9 8,0 6 4 10 5 O 1030,8 7 0 0,0
12.01.2020 20:00:00 1,3 -0,9 -3,6 5,9 8,0 6 4 9 5 ONO 1030,6 7 0 0,0
12.01.2020 19:00:00 2,3 1,3 -3,2 5,8 8,0 4 2 9 5 O 1030,3 8 0 0,0
12.01.2020 18:00:00 3,8 1,5 -2,4 5,8 8,0 3 2 8 4 N 1029,8 16 0 0,0
12.01.2020 17:00:00 6,6 2,7 1,8 5,7 8,0 5 3 8 4 W 1029,3 20 41 0,0
12.01.2020 16:00:00 9,6 2,7 12,8 5,7 8,0 2 1 6 4 W 1028,8 22 51 0,0
12.01.2020 15:00:00 9,6 2,4 14,5 5,6 8,0 4 2 9 5 ZW 1029,0 15 60 0,0
12.01.2020 14:00:00 7,7 1,1 13,4 5,7 8,0 4 2 10 6 WNW 1030,0 32 60 0,0
12.01.2020 13:00:00 6,8 0,2 10,6 5,7 8,0 4 2 11 6 NNO 1030,8 22 60 0,0
12.01.2020 12:00:00 5,7 1,4 6,7 5,7 8,0 5 3 17 9 ONO 1031,6 15 60 0,0
12.01.2020 11:00:00 3,7 0,9 3,5 5,8 8,0 13 7 18 10 O 1032,4 11 60 0,0

tt = temperatuur
td = dauwpunt
tt 5cm = temperatuur 5cm
tt -20cm = temperatuur -20cm
tt -100cm = temperatuur -100cm
ff = windsnelheid
fx = windstoten
dd = windrichting
ppp = luchtdruk
vv = zicht
sd = Zonneschijnduur
rr = neerslag

Weerstations in de omgeving